Tracking 22458 objects as of 4-Mar-2021
HD Live streaming from Space Station
objects crossing your sky now

COSMOS 1814 DEB *

Track COSMOS 1814 DEB * now!
10-day predictions


NORAD ID: 18257
Int'l Code: 1987-006C
Perigee: 700.8 km
Apogee: 711.1 km
Inclination: 74.0 °
Period: 98.7 minutes
Semi major axis: 7076 km
RCS: 0.0165 m2 (small)
Launch date: January 21, 1987
Source: Commonwealth of Independent States (former USSR) (CIS)
Launch site: PLESETSK MISSILE AND SPACE COMPLEX (PKMTR)

Note: This is SATELLITE DEBRIS
aabbcc
Your satellite tracking list
Your tracking list is empty




NASA's NSSDC Master Catalog

Two Line Element Set (TLE):
1 18257U 87006C   21063.01961888  .00000369  00000-0  86125-4 0  9991
2 18257  74.0356  69.3075 0007260 301.3571  58.6883 14.58264912872934
Source of the keplerian elements: AFSPC